Volver al catálogo

COSMOS 1913

ActivoMilitarPO
NORAD 18792·PAYLOAD·🇷🇺 Russia

Lanzado Jan 15, 1988 desde Plesetsk Cosmodrome

Loading…

Próximos Pases (próximas 24 horas)

TLE

ActualizadoSource: Space-Track

Época: Sep 14, 2026, 17:03 UTC

1 18792U 88002E   26257.71077760  .00000041  00000-0  16457-3 0  9993
2 18792  82.6032 159.3391 0012551 221.3925 164.7705 12.65751996786089

Sigue COSMOS 1913 en tiempo real con AllMySat

Download on the App Store